FW8074 Weather Reports


time (UTC)temp
F
wind
direction
speed
knots
gust
knots
rain 1hr
in
rain 24hr
in
rain mn
in
humidity
%
barometer
mb
20260906231605 78 142 1.7 7.0 0.00 0.00 0.00 82 1009.0
20260906230106 79 101 0.9 6.1 0.00 0.00 0.00 81 1008.9
20260906224603 80 179 1.7 6.1 0.00 0.00 0.00 80 1008.8
20260906223106 80 101 0.9 6.1 0.00 0.00 0.00 79 1008.5
20260906221604 81 103 0.9 3.5 0.00 0.00 0.00 76 1007.9
20260906220104 82 0 1.7 6.1 0.00 0.00 0.00 73 1008.0
20260906214605 83 96 1.7 7.0 0.00 0.00 0.00 70 1008.1
20260906213105 84 66 0.9 4.3 0.00 0.00 0.00 69 1007.8
20260906211604 85 109 2.6 7.8 0.00 0.00 0.00 68 1008.0
20260906210108 86 7 1.7 7.0 0.00 0.00 0.00 64 1008.0
20260906204608 85 304 0.9 5.2 0.00 0.00 0.00 70 1008.1
20260906203106 85 93 2.6 7.8 0.00 0.00 0.00 72 1007.7
20260906201619 84 84 2.6 7.0 0.00 0.00 0.00 72 1008.1
20260906194621 84 305 0.9 7.8 0.00 0.00 0.00 77 1008.2
20260906193123 83 53 1.7 7.8 0.00 0.00 0.00 79 1008.1
20260906191623 83 90 2.6 9.6 0.00 0.00 0.00 77 1008.5
20260906190104 84 300 2.6 8.7 0.00 0.00 0.00 80 1008.7
20260906184610 84 176 3.5 8.7 0.00 0.00 0.00 79 1009.3
20260906183108 85 357 1.7 7.8 0.00 0.00 0.00 78 1009.5
20260906181614 85 132 0.9 9.6 0.00 0.00 0.00 77 1009.5
20260906180119 85 0 1.7 7.8 0.00 0.00 0.00 77 1009.4
20260906174608 86 69 0.9 6.1 0.00 0.00 0.00 78 1009.1
20260906173106 85 0 1.7 6.1 0.00 0.00 0.00 76 1009.2
20260906171606 86 191 1.7 7.8 0.00 0.00 0.00 76 1009.4
20260906170123 86 0 2.6 7.0 0.00 0.00 0.00 76 1009.4
20260906164605 86 93 0.0 7.8 0.00 0.00 0.00 75 1009.4
20260906163116 85 62 3.5 7.8 0.00 0.00 0.00 77 1009.6
20260906161602 85 0 0.9 8.7 0.00 0.00 0.00 75 1009.4
20260906154605 84 0 2.6 7.0 0.00 0.00 0.00 78 1009.5
20260906153104 84 0 1.7 7.0 0.00 0.00 0.00 80 1009.6
20260906151606 84 43 1.7 5.2 0.00 0.00 0.00 79 1009.9
20260906150114 83 142 0.0 5.2 0.00 0.00 0.00 79 1009.6
20260906144605 82 0 0.0 5.2 0.00 0.00 0.00 81 1009.4
20260906143104 81 0 0.0 5.2 0.00 0.00 0.00 82 1009.6
20260906141603 80 161 1.7 7.0 0.00 0.00 0.00 83 1009.6
20260906140111 80 109 1.7 6.1 0.00 0.00 0.00 85 1009.6
20260906134604 79 89 0.9 4.3 0.00 0.00 0.00 86 1009.5
20260906133136 78 123 0.9 7.0 0.00 0.00 0.00 88 1009.4
20260906131602 76 111 1.7 5.2 0.00 0.00 0.00 89 1009.4
20260906130119 75 84 1.7 4.3 0.00 0.00 0.00 92 1009.4
20260906124604 74 334 0.0 3.5 0.00 0.00 0.00 94 1009.2
20260906123108 72 0 0.9 3.5 0.00 0.00 0.00 97 1009.2
20260906121607 71 0 0.0 3.5 0.00 0.00 0.00 98 1008.9
20260906120106 70 94 0.0 1.7 0.00 0.00 0.00 98 1008.7
20260906114601 69 0 0.0 1.7 0.00 0.00 0.00 98 1008.7
20260906113108 69 0 0.0 0.0 0.00 0.00 0.00 98 1008.7
20260906111620 69 0 0.0 0.9 0.00 0.00 0.00 98 1008.6
20260906110105 69 0 0.0 0.0 0.00 0.00 0.00 98 1008.2
20260906104605 69 0 0.0 0.0 0.00 0.00 0.00 98 1007.7
20260906103105 69 0 0.0 0.0 0.00 0.00 0.00 98 1007.5
20260906101605 69 0 0.0 0.0 0.00 0.00 0.00 98 1007.6
20260906100104 69 0 0.0 0.9 0.00 0.00 0.00 97 1007.6
20260906094601 69 0 0.0 0.0 0.00 0.00 0.00 98 1007.6
20260906093108 69 0 0.0 0.0 0.00 0.00 0.00 98 1007.5
20260906091602 69 0 0.0 0.0 0.00 0.00 0.00 97 1007.3
20260906090104 69 0 0.0 0.0 0.00 0.00 0.00 97 1007.3
20260906084605 70 0 0.0 0.0 0.00 0.00 0.00 97 1007.3
20260906083106 70 0 0.0 0.0 0.00 0.00 0.00 97 1007.2
20260906081603 70 0 0.0 0.0 0.00 0.00 0.00 97 1007.1
20260906080104 70 0 0.0 0.9 0.00 0.00 0.00 97 1007.1
20260906074601 70 0 0.0 0.0 0.00 0.00 0.00 97 1007.2
20260906073104 70 0 0.0 0.9 0.00 0.00 0.00 97 1007.2
20260906071604 70 355 0.0 0.9 0.00 0.00 0.00 96 1007.4
20260906070105 70 0 0.0 0.9 0.00 0.00 0.00 96 1007.4
20260906064606 71 0 0.0 0.9 0.00 0.00 0.00 96 1007.5
20260906063107 71 0 0.0 0.0 0.00 0.00 0.00 96 1007.8
20260906061608 71 0 0.0 0.0 0.00 0.00 0.00 95 1007.6
20260906060105 71 0 0.0 0.9 0.00 0.00 0.00 95 1007.8
20260906054606 71 0 0.0 0.0 0.00 0.00 0.00 95 1007.8
20260906053105 72 0 0.0 0.9 0.00 0.00 0.00 94 1008.1
20260906051614 72 0 0.0 0.0 0.00 0.00 0.00 93 1008.4
20260906050107 72 0 0.0 0.9 0.00 0.00 0.00 93 1008.6
20260906044610 72 0 0.0 0.9 0.00 0.00 0.00 92 1008.5
20260906043104 72 0 0.0 0.9 0.00 0.00 0.00 91 1008.6
20260906041604 73 0 0.0 0.0 0.00 0.00 0.00 90 1008.7
20260906040139 73 0 0.0 0.0 0.00 0.00 0.00 90 1008.7
20260906034620 73 0 0.0 0.0 0.00 0.00 0.00 89 1008.7
20260906033108 74 0 0.0 0.0 0.00 0.00 0.00 88 1008.6
20260906031600 74 0 0.0 0.0 0.00 0.00 0.00 87 1008.6
20260906030104 75 0 0.0 0.0 0.00 0.00 0.00 86 1008.5
20260906024614 75 0 0.0 0.0 0.00 0.00 0.00 86 1008.4
20260906023106 75 0 0.0 0.0 0.00 0.00 0.00 86 1008.3
20260906021602 76 0 0.0 0.0 0.00 0.00 0.00 85 1008.0
20260906020106 76 0 0.0 0.0 0.00 0.00 0.00 85 1008.0
20260906014605 77 0 0.0 0.0 0.00 0.00 0.00 84 1008.2
20260906013119 77 0 0.0 0.0 0.00 0.00 0.00 82 1007.9
20260906011605 78 0 0.0 0.0 0.00 0.00 0.00 81 1007.9
20260906010105 78 0 0.0 1.7 0.00 0.00 0.00 80 1007.9
20260906004600 79 0 0.0 0.0 0.00 0.00 0.00 81 1008.0
20260906003104 79 0 0.0 1.7 0.00 0.00 0.00 80 1007.7
20260906001609 79 266 2.6 5.2 0.00 0.00 0.00 79 1007.8
20260906000104 79 0 0.0 0.0 0.00 0.00 0.00 80 1008.0
20260905234603 79 0 0.0 0.0 0.00 0.00 0.00 78 1008.0
20260905233104 80 0 0.0 0.0 0.00 0.00 0.00 78 1007.9